time, Switch, Flow(0), Analog(2)
yyyy/mm/dd HH:MM:SS.fff, True=FILTERED|False=TOTAL, L/min, V
2023/06/14 11:00:03.172, True, 3.978, 0.141451
2023/06/14 11:00:03.668, True, 4.044, 0.141070
2023/06/14 11:00:04.172, True, 2.321, 0.141680
2023/06/14 11:00:04.676, True, 1.327, 0.142290
2023/06/14 11:00:05.172, True, 1.011, 0.142214
2023/06/14 11:00:05.676, True, 0.663, 0.141146
2023/06/14 11:00:06.180, True, 0.664, 0.142290
2023/06/14 11:00:06.676, True, 0.337, 0.140612
2023/06/14 11:00:07.180, True, 0.664, 0.141375
2023/06/14 11:00:07.684, True, 0.332, 0.142290
2023/06/14 11:00:08.180, True, 0.337, 0.140536
2023/06/14 11:00:08.684, True, 0.664, 0.141833
2023/06/14 11:00:09.188, True, 0.331, 0.140764
2023/06/14 11:00:09.684, True, 0.337, 0.142061
2023/06/14 11:00:10.188, True, 0.663, 0.140307
2023/06/14 11:00:10.692, True, 0.332, 0.140612
2023/06/14 11:00:11.188, True, 0.337, 0.142748
2023/06/14 11:00:11.692, True, 0.663, 0.141299
2023/06/14 11:00:12.196, True, 0.332, 0.141985
2023/06/14 11:00:12.692, True, 0.337, 0.142290
2023/06/14 11:00:13.196, True, 0.663, 0.141070
2023/06/14 11:00:13.700, True, 0.331, 0.141985
2023/06/14 11:00:14.196, True, 0.674, 0.139849
2023/06/14 11:00:14.700, True, 0.332, 0.140841
2023/06/14 11:00:15.204, True, 0.332, 0.142214
2023/06/14 11:00:15.707, True, 0.332, 0.140841
2023/06/14 11:00:16.204, True, 0.337, 0.143816
2023/06/14 11:00:16.707, True, 0.663, 0.142367
2023/06/14 11:00:17.211, True, 0.332, 0.141985
2023/06/14 11:00:17.708, True, 0.336, 0.143130
2023/06/14 11:00:18.212, True, 0.663, 0.138705
2023/06/14 11:00:18.708, True, 0.337, 0.140078
2023/06/14 11:00:19.212, True, 0.331, 0.141680
2023/06/14 11:00:19.716, True, 0.663, 0.141756
2023/06/14 11:00:20.220, True, 0.332, 0.140536
2023/06/14 11:00:20.716, True, 0.674, 0.143282
2023/06/14 11:00:21.220, True, 0.331, 0.141299
2023/06/14 11:00:21.724, True, 0.332, 0.142290
2023/06/14 11:00:22.220, True, 0.337, 0.142061
2023/06/14 11:00:22.724, True, 0.663, 0.140307
2023/06/14 11:00:23.228, True, 0.332, 0.142061
2023/06/14 11:00:23.732, True, 0.332, 0.142443
2023/06/14 11:00:24.228, True, 0.674, 0.140230
2023/06/14 11:00:24.732, True, 0.332, 0.144045
2023/06/14 11:00:25.236, True, 0.331, 0.143816
2023/06/14 11:00:25.732, True, 0.674, 0.141146
2023/06/14 11:00:26.236, True, 0.331, 0.140764
2023/06/14 11:00:26.740, True, 0.331, 0.141985
2023/06/14 11:00:27.236, True, 0.337, 0.139620
2023/06/14 11:00:27.740, True, 0.663, 0.140993
2023/06/14 11:00:28.244, True, 0.332, 0.142214
2023/06/14 11:00:28.748, True, 0.332, 0.139010
2023/06/14 11:00:29.244, True, 0.337, 0.143740
2023/06/14 11:00:29.748, True, 0.664, 0.140459
2023/06/14 11:00:30.252, True, 0.331, 0.141527
2023/06/14 11:00:30.756, True, 0.331, 0.140383
2023/06/14 11:00:31.252, True, 0.675, 0.142443
2023/06/14 11:00:31.756, True, 0.332, 0.140459
2023/06/14 11:00:32.260, True, 0.331, 0.141070
2023/06/14 11:00:32.755, True, 0.674, 0.143969
2023/06/14 11:00:33.260, True, 0.332, 0.141070
2023/06/14 11:00:33.764, True, 0.332, 0.141909
2023/06/14 11:00:34.260, True, 0.337, 0.139162
2023/06/14 11:00:34.764, True, 0.663, 0.142061
2023/06/14 11:00:35.260, True, 0.337, 0.139315
2023/06/14 11:00:35.764, True, 0.332, 0.139849
2023/06/14 11:00:36.268, True, 0.663, 0.143359
2023/06/14 11:00:36.764, True, 0.337, 0.140917
2023/06/14 11:00:37.268, True, 0.332, 0.141604
2023/06/14 11:00:37.772, True, 0.662, 0.140383
2023/06/14 11:00:38.268, True, 0.337, 0.141451
2023/06/14 11:00:38.772, True, 0.332, 0.141909
2023/06/14 11:00:39.276, True, 0.331, 0.139467
2023/06/14 11:00:39.772, True, 0.674, 0.141299
2023/06/14 11:00:40.276, True, 0.332, 0.140459
2023/06/14 11:00:40.780, True, 0.331, 0.140459
2023/06/14 11:00:41.283, True, 0.332, 0.142138
2023/06/14 11:00:41.780, True, 0.675, 0.141833
2023/06/14 11:00:42.284, True, 0.331, 0.139849
2023/06/14 11:00:42.788, True, 0.331, 0.141451
2023/06/14 11:00:43.284, True, 0.674, 0.139849
2023/06/14 11:00:43.788, True, 0.332, 0.141604
2023/06/14 11:00:44.292, True, 0.332, 0.142443
2023/06/14 11:00:44.788, True, 0.674, 0.142443
2023/06/14 11:00:45.292, True, 0.331, 0.140917
2023/06/14 11:00:45.796, True, 0.331, 0.144274
2023/06/14 11:00:46.300, True, 0.332, 0.140154
2023/06/14 11:00:46.796, True, 0.674, 0.145418
2023/06/14 11:00:47.300, True, 0.332, 0.141299
2023/06/14 11:00:47.804, True, 0.332, 0.140993
2023/06/14 11:00:48.300, True, 0.337, 0.140993
2023/06/14 11:00:48.804, True, 0.663, 0.138781
2023/06/14 11:00:49.308, True, 0.332, 0.141756
2023/06/14 11:00:49.803, True, 0.337, 0.142214
2023/06/14 11:00:50.308, True, 0.332, 0.142443
2023/06/14 11:00:50.812, True, 0.663, 0.138781
2023/06/14 11:00:51.308, True, 0.337, 0.144503
2023/06/14 11:00:51.812, True, 0.332, 0.141604
2023/06/14 11:00:52.316, True, 0.332, 0.140688
2023/06/14 11:00:52.812, True, 0.674, 0.143206
2023/06/14 11:00:53.316, True, 0.332, 0.143053
2023/06/14 11:00:53.820, True, 0.332, 0.141909
2023/06/14 11:00:54.316, True, 0.674, 0.142901
2023/06/14 11:00:54.820, True, 0.332, 0.141375
2023/06/14 11:00:55.323, True, 0.332, 0.142748
2023/06/14 11:00:55.820, True, 0.336, 0.141222
2023/06/14 11:00:56.324, True, 0.663, 0.144198
2023/06/14 11:00:56.828, True, 0.332, 0.143282
2023/06/14 11:00:57.332, True, 0.331, 0.141527
2023/06/14 11:00:57.828, True, 0.337, 0.140459
2023/06/14 11:00:58.332, True, 0.663, 0.142672
2023/06/14 11:00:58.827, True, 0.337, 0.140383
2023/06/14 11:00:59.332, True, 0.332, 0.141299
2023/06/14 11:00:59.836, True, 0.332, 0.143359
2023/06/14 11:01:00.332, True, 0.673, 0.141604
2023/06/14 11:01:00.836, True, 0.332, 0.141604
2023/06/14 11:01:01.340, True, 0.331, 0.141833
2023/06/14 11:01:01.836, True, 0.337, 0.142977
2023/06/14 11:01:02.340, True, 0.663, 0.141985
2023/06/14 11:01:02.844, True, 0.332, 0.140536
2023/06/14 11:01:03.348, True, 0.332, 0.140688
2023/06/14 11:01:03.844, True, 0.673, 0.142138
2023/06/14 11:01:04.348, True, 0.332, 0.143435
2023/06/14 11:01:04.852, True, 0.332, 0.144579
2023/06/14 11:01:05.348, True, 0.337, 0.141527
2023/06/14 11:01:05.852, True, 0.663, 0.140993
2023/06/14 11:01:06.356, True, 0.332, 0.141909
2023/06/14 11:01:06.852, True, 0.337, 0.141375
2023/06/14 11:01:07.356, True, 0.331, 0.141756
2023/06/14 11:01:07.860, True, 0.663, 0.139620
2023/06/14 11:01:08.356, True, 0.337, 0.142367
2023/06/14 11:01:08.859, True, 0.332, 0.142214
2023/06/14 11:01:09.364, True, 0.332, 0.141451
2023/06/14 11:01:09.868, True, 0.663, 0.142672
2023/06/14 11:01:10.364, True, 0.337, 0.143511
2023/06/14 11:01:10.868, True, 0.332, 0.139773
2023/06/14 11:01:11.372, True, 0.331, 0.141527
2023/06/14 11:01:11.868, True, 0.674, 0.139391
2023/06/14 11:01:12.372, True, 0.332, 0.139849
2023/06/14 11:01:12.876, True, 0.332, 0.142061
2023/06/14 11:01:13.372, True, 0.337, 0.142977
2023/06/14 11:01:13.876, True, 0.332, 0.142290
2023/06/14 11:01:14.380, True, 0.664, 0.140764
2023/06/14 11:01:14.876, True, 0.337, 0.142519
2023/06/14 11:01:15.380, True, 0.332, 0.141833
2023/06/14 11:01:15.884, True, 0.331, 0.142367
2023/06/14 11:01:16.380, True, 0.675, 0.140002
2023/06/14 11:01:16.884, True, 0.331, 0.139544
2023/06/14 11:01:17.388, True, 0.332, 0.140002
2023/06/14 11:01:17.884, True, 0.674, 0.139620
2023/06/14 11:01:18.388, True, 0.332, 0.142748
2023/06/14 11:01:18.892, True, 0.331, 0.140841
2023/06/14 11:01:19.388, True, 0.337, 0.141375
2023/06/14 11:01:19.891, True, 0.332, 0.141604
2023/06/14 11:01:20.396, True, 0.663, 0.141375
2023/06/14 11:01:20.892, True, 0.336, 0.141451
2023/06/14 11:01:21.396, True, 0.332, 0.142138
2023/06/14 11:01:21.900, True, 0.332, 0.142367
2023/06/14 11:01:22.403, True, 0.662, 0.142061
2023/06/14 11:01:22.900, True, 0.337, 0.138170
2023/06/14 11:01:23.404, True, 0.331, 0.141833
2023/06/14 11:01:23.900, True, 0.337, 0.139696
2023/06/14 11:01:24.404, True, 0.332, 0.141375
2023/06/14 11:01:24.908, True, 0.663, 0.143893
2023/06/14 11:01:25.404, True, 0.337, 0.139696
2023/06/14 11:01:25.908, True, 0.332, 0.140993
2023/06/14 11:01:26.412, True, 0.332, 0.142214
2023/06/14 11:01:26.908, True, 0.337, 0.140307
2023/06/14 11:01:27.412, True, 0.663, 0.140764
2023/06/14 11:01:27.916, True, 0.331, 0.140230
2023/06/14 11:01:28.420, True, 0.332, 0.140993
2023/06/14 11:01:28.916, True, 0.337, 0.141833
2023/06/14 11:01:29.419, True, 0.664, 0.143053
2023/06/14 11:01:29.924, True, 0.331, 0.140154
2023/06/14 11:01:30.420, True, 0.337, 0.140002
2023/06/14 11:01:30.924, True, 0.332, 0.141680
2023/06/14 11:01:31.420, True, 0.337, 0.140993
2023/06/14 11:01:31.924, True, 0.663, 0.139849
2023/06/14 11:01:32.428, True, 0.332, 0.140917
2023/06/14 11:01:32.924, True, 0.337, 0.140230
2023/06/14 11:01:33.428, True, 0.663, 0.142519
2023/06/14 11:01:33.932, True, 0.332, 0.140841
2023/06/14 11:01:34.436, True, 0.331, 0.142290
2023/06/14 11:01:34.932, True, 0.337, 0.141604
2023/06/14 11:01:35.436, True, 0.663, 0.140612
2023/06/14 11:01:35.940, True, 0.332, 0.140917
2023/06/14 11:01:36.436, True, 0.337, 0.139773
2023/06/14 11:01:36.940, True, 0.663, 0.139010
2023/06/14 11:01:37.435, True, 0.337, 0.141527
2023/06/14 11:01:37.940, True, 0.331, 0.143053
2023/06/14 11:01:38.444, True, 0.332, 0.141756
2023/06/14 11:01:38.947, True, 0.664, 0.140764
2023/06/14 11:01:39.443, True, 0.336, 0.140383
2023/06/14 11:01:39.948, True, 0.332, 0.142977
2023/06/14 11:01:40.451, True, 0.331, 0.140002
2023/06/14 11:01:40.948, True, 0.337, 0.138857
2023/06/14 11:01:41.452, True, 0.331, 0.142596
2023/06/14 11:01:41.956, True, 0.664, 0.140536
2023/06/14 11:01:42.460, True, 0.331, 0.142596
2023/06/14 11:01:42.955, True, 0.337, 0.139239
2023/06/14 11:01:43.460, True, 0.332, 0.142367
2023/06/14 11:01:43.955, True, 0.673, 0.143587
2023/06/14 11:01:44.460, True, 0.331, 0.141680
2023/06/14 11:01:44.964, True, 0.332, 0.140612
2023/06/14 11:01:45.460, True, 0.337, 0.141756
2023/06/14 11:01:45.964, True, 0.663, 0.141451
2023/06/14 11:01:46.468, True, 0.332, 0.140002
2023/06/14 11:01:46.972, True, 0.332, 0.142748
2023/06/14 11:01:47.468, True, 0.336, 0.140612
2023/06/14 11:01:47.972, True, 0.663, 0.141909
2023/06/14 11:01:48.476, True, 0.332, 0.141909
2023/06/14 11:01:48.972, True, 0.337, 0.140993
2023/06/14 11:01:49.476, True, 0.332, 0.140307
2023/06/14 11:01:49.980, True, 0.331, 0.140230
2023/06/14 11:01:50.476, True, 0.675, 0.141375
2023/06/14 11:01:50.980, True, 0.331, 0.140459
2023/06/14 11:01:51.484, True, 0.332, 0.142824
2023/06/14 11:01:51.980, True, 0.674, 0.142290
2023/06/14 11:01:52.483, True, 0.332, 0.144656
2023/06/14 11:01:52.988, True, 0.332, 0.141985
2023/06/14 11:01:53.484, True, 0.336, 0.140764
2023/06/14 11:01:53.988, True, 0.663, 0.143740
2023/06/14 11:01:54.492, True, 0.332, 0.140764
2023/06/14 11:01:54.988, True, 0.337, 0.142290
2023/06/14 11:01:55.492, True, 0.331, 0.142443
2023/06/14 11:01:55.996, True, 0.663, 0.144198
2023/06/14 11:01:56.492, True, 0.337, 0.142672
2023/06/14 11:01:56.996, True, 0.331, 0.142443
2023/06/14 11:01:57.500, True, 0.332, 0.140688
2023/06/14 11:01:57.996, True, 0.674, 0.141451
2023/06/14 11:01:58.500, True, 0.332, 0.138628
2023/06/14 11:01:59.004, True, 0.331, 0.140307
2023/06/14 11:01:59.500, True, 0.674, 0.141527
2023/06/14 11:02:00.004, True, 0.332, 0.142061
2023/06/14 11:02:00.508, True, 0.332, 0.141833
2023/06/14 11:02:01.004, True, 0.337, 0.142901
2023/06/14 11:02:01.508, True, 0.663, 0.141985
2023/06/14 11:02:02.012, True, 0.332, 0.141756
2023/06/14 11:02:02.508, True, 0.337, 0.141222
2023/06/14 11:02:03.012, True, 0.332, 0.141527
2023/06/14 11:02:03.516, True, 0.664, 0.143511
2023/06/14 11:02:04.012, True, 0.336, 0.143053
2023/06/14 11:02:04.516, True, 0.332, 0.141222
2023/06/14 11:02:05.020, True, 0.332, 0.144121
2023/06/14 11:02:05.516, True, 0.674, 0.142977
2023/06/14 11:02:06.020, True, 0.332, 0.142290
2023/06/14 11:02:06.524, True, 0.332, 0.145800
2023/06/14 11:02:07.020, True, 0.336, 0.144350
2023/06/14 11:02:07.524, True, 0.332, 0.146029
2023/06/14 11:02:08.028, True, 0.332, 0.143359
2023/06/14 11:02:08.524, True, 0.674, 0.145190
2023/06/14 11:02:09.028, True, 0.332, 0.145953
2023/06/14 11:02:09.531, True, 0.332, 0.144961
2023/06/14 11:02:10.027, True, 0.337, 0.145724
2023/06/14 11:02:10.532, True, 0.663, 0.146792
2023/06/14 11:02:11.028, True, 0.337, 0.143511
2023/06/14 11:02:11.532, True, 0.332, 0.146639
2023/06/14 11:02:12.036, True, 0.332, 0.144656
2023/06/14 11:02:12.532, True, 0.337, 0.143359
2023/06/14 11:02:13.036, True, 0.662, 0.145800
2023/06/14 11:02:13.539, True, 0.332, 0.145037
2023/06/14 11:02:14.044, True, 0.331, 0.144656
2023/06/14 11:02:14.540, True, 0.337, 0.144427
2023/06/14 11:02:15.044, True, 0.332, 0.145800
2023/06/14 11:02:15.540, True, 0.674, 0.147784
2023/06/14 11:02:16.044, True, 0.331, 0.145037
2023/06/14 11:02:16.548, True, 0.332, 0.145418
2023/06/14 11:02:17.044, True, 0.337, 0.147097
2023/06/14 11:02:17.548, True, 0.663, 0.146944
2023/06/14 11:02:18.051, True, 0.332, 0.147478
2023/06/14 11:02:18.556, True, 0.331, 0.147478
2023/06/14 11:02:19.052, True, 0.337, 0.145266
2023/06/14 11:02:19.555, True, 0.663, 0.147631
2023/06/14 11:02:20.059, True, 0.332, 0.147478
2023/06/14 11:02:20.556, True, 0.337, 0.145037
2023/06/14 11:02:21.060, True, 0.332, 0.147936
2023/06/14 11:02:21.564, True, 0.663, 0.146639
2023/06/14 11:02:22.060, True, 0.337, 0.149004
2023/06/14 11:02:22.564, True, 0.332, 0.148318
2023/06/14 11:02:23.060, True, 0.337, 0.147707
2023/06/14 11:02:23.564, True, 0.663, 0.146944
2023/06/14 11:02:24.068, True, 0.332, 0.147707
2023/06/14 11:02:24.572, True, 0.332, 0.147707
2023/06/14 11:02:25.068, True, 0.337, 0.147555
2023/06/14 11:02:25.572, True, 0.663, 0.149844
2023/06/14 11:02:26.076, True, 0.332, 0.149615
2023/06/14 11:02:26.572, True, 0.337, 0.149996
2023/06/14 11:02:27.076, True, 0.332, 0.149081
2023/06/14 11:02:27.580, True, 0.663, 0.147097
2023/06/14 11:02:28.076, True, 0.337, 0.149462
2023/06/14 11:02:28.580, True, 0.332, 0.150301
2023/06/14 11:02:29.084, True, 0.332, 0.150072
2023/06/14 11:02:29.580, True, 0.673, 0.152743
2023/06/14 11:02:30.084, True, 0.332, 0.148928
2023/06/14 11:02:30.588, True, 0.331, 0.149462
2023/06/14 11:02:31.084, True, 0.337, 0.149462
2023/06/14 11:02:31.588, True, 0.331, 0.149920
2023/06/14 11:02:32.092, True, 0.664, 0.149233
2023/06/14 11:02:32.588, True, 0.336, 0.151598
2023/06/14 11:02:33.092, True, 0.332, 0.151064
2023/06/14 11:02:33.595, True, 0.332, 0.149538
2023/06/14 11:02:34.092, True, 0.336, 0.151675
2023/06/14 11:02:34.596, True, 0.663, 0.153429
2023/06/14 11:02:35.100, True, 0.332, 0.151751
2023/06/14 11:02:35.596, True, 0.337, 0.152438
2023/06/14 11:02:36.100, True, 0.332, 0.149920
2023/06/14 11:02:36.604, True, 0.663, 0.151598
2023/06/14 11:02:37.100, True, 0.337, 0.152514
2023/06/14 11:02:37.604, True, 0.332, 0.148928
2023/06/14 11:02:38.107, True, 0.332, 0.152438
2023/06/14 11:02:38.611, True, 0.331, 0.152819
2023/06/14 11:02:39.108, True, 0.675, 0.150683
2023/06/14 11:02:39.612, True, 0.331, 0.151064
2023/06/14 11:02:40.116, True, 0.332, 0.149996
2023/06/14 11:02:40.612, True, 0.337, 0.150835
2023/06/14 11:02:41.116, True, 0.664, 0.151369
2023/06/14 11:02:41.620, True, 0.331, 0.150072
2023/06/14 11:02:42.116, True, 0.337, 0.151217
2023/06/14 11:02:42.620, True, 0.332, 0.153048
2023/06/14 11:02:43.124, True, 0.663, 0.150530
2023/06/14 11:02:43.620, True, 0.337, 0.151751
2023/06/14 11:02:44.124, True, 0.331, 0.152514
2023/06/14 11:02:44.628, True, 0.331, 0.150759
2023/06/14 11:02:45.132, True, 0.332, 0.152209
2023/06/14 11:02:45.628, True, 0.674, 0.150301
2023/06/14 11:02:46.132, True, 0.332, 0.152209
2023/06/14 11:02:46.628, True, 0.337, 0.150988
2023/06/14 11:02:47.131, True, 0.332, 0.151751
2023/06/14 11:02:47.636, True, 0.664, 0.151369
2023/06/14 11:02:48.132, True, 0.337, 0.150530
2023/06/14 11:02:48.636, True, 0.331, 0.150072
2023/06/14 11:02:49.140, True, 0.331, 0.151904
2023/06/14 11:02:49.644, True, 0.332, 0.151064
2023/06/14 11:02:50.140, True, 0.337, 0.151980
2023/06/14 11:02:50.644, True, 0.663, 0.152209
2023/06/14 11:02:51.148, True, 0.332, 0.151141
2023/06/14 11:02:51.644, True, 0.337, 0.151217
2023/06/14 11:02:52.148, True, 0.332, 0.152056
2023/06/14 11:02:52.652, True, 0.332, 0.152514
2023/06/14 11:02:53.147, True, 0.675, 0.153582
2023/06/14 11:02:53.652, True, 0.331, 0.153048
2023/06/14 11:02:54.156, True, 0.332, 0.153658
2023/06/14 11:02:54.652, True, 0.337, 0.153353
2023/06/14 11:02:55.156, True, 0.331, 0.155108
2023/06/14 11:02:55.660, True, 0.663, 0.150759
2023/06/14 11:02:56.155, True, 0.337, 0.154040
2023/06/14 11:02:56.660, True, 0.332, 0.152514
2023/06/14 11:02:57.163, True, 0.332, 0.154498
2023/06/14 11:02:57.660, True, 0.337, 0.152361
2023/06/14 11:02:58.163, True, 0.663, 0.151598
2023/06/14 11:02:58.668, True, 0.332, 0.153429
2023/06/14 11:02:59.164, True, 0.337, 0.152209
2023/06/14 11:02:59.668, True, 0.331, 0.155108
2023/06/14 11:03:00.172, True, 0.664, 0.154498
2023/06/14 11:03:00.668, True, 0.336, 0.152132
2023/06/14 11:03:01.171, True, 0.332, 0.155184
2023/06/14 11:03:01.667, True, 0.337, 0.151598
2023/06/14 11:03:02.172, True, 0.332, 0.152285
2023/06/14 11:03:02.675, True, 0.331, 0.151904
2023/06/14 11:03:03.171, True, 0.673, 0.153048
2023/06/14 11:03:03.675, True, 0.332, 0.154269
2023/06/14 11:03:04.172, True, 0.337, 0.155184
2023/06/14 11:03:04.675, True, 0.332, 0.152209
2023/06/14 11:03:05.179, True, 0.663, 0.152514
2023/06/14 11:03:05.683, True, 0.332, 0.156176
2023/06/14 11:03:06.179, True, 0.337, 0.149462
2023/06/14 11:03:06.683, True, 0.331, 0.153201
2023/06/14 11:03:07.188, True, 0.332, 0.154803
2023/06/14 11:03:07.683, True, 0.337, 0.152972
2023/06/14 11:03:08.187, True, 0.664, 0.153124
2023/06/14 11:03:08.692, True, 0.331, 0.155718
2023/06/14 11:03:09.188, True, 0.337, 0.152438
2023/06/14 11:03:09.692, True, 0.331, 0.152972
2023/06/14 11:03:10.195, True, 0.663, 0.151827
2023/06/14 11:03:10.692, True, 0.337, 0.149767
2023/06/14 11:03:11.196, True, 0.332, 0.153887
2023/06/14 11:03:11.699, True, 0.332, 0.152285
2023/06/14 11:03:12.204, True, 0.332, 0.153124
2023/06/14 11:03:12.700, True, 0.337, 0.151675
2023/06/14 11:03:13.204, True, 0.331, 0.154269
2023/06/14 11:03:13.707, True, 0.664, 0.152209
2023/06/14 11:03:14.204, True, 0.337, 0.153048
2023/06/14 11:03:14.707, True, 0.331, 0.153124
2023/06/14 11:03:15.212, True, 0.332, 0.152056
2023/06/14 11:03:15.708, True, 0.337, 0.153048
2023/06/14 11:03:16.212, True, 0.663, 0.152056
2023/06/14 11:03:16.716, True, 0.331, 0.154421
2023/06/14 11:03:17.212, True, 0.337, 0.155871
2023/06/14 11:03:17.716, True, 0.332, 0.154345
2023/06/14 11:03:18.220, True, 0.332, 0.152361
2023/06/14 11:03:18.716, True, 0.674, 0.154879
2023/06/14 11:03:19.220, True, 0.332, 0.152895
2023/06/14 11:03:19.724, True, 0.332, 0.153048
2023/06/14 11:03:20.219, True, 0.337, 0.153201
2023/06/14 11:03:20.724, True, 0.662, 0.153964
2023/06/14 11:03:21.228, True, 0.332, 0.153658
2023/06/14 11:03:21.732, True, 0.332, 0.153277
2023/06/14 11:03:22.228, True, 0.336, 0.152667
2023/06/14 11:03:22.732, True, 0.332, 0.152667
2023/06/14 11:03:23.236, True, 0.662, 0.151980
2023/06/14 11:03:23.732, True, 0.338, 0.151522
2023/06/14 11:03:24.236, True, 0.331, 0.153506
2023/06/14 11:03:24.731, True, 0.337, 0.155337
2023/06/14 11:03:25.236, True, 0.331, 0.155032
2023/06/14 11:03:25.740, True, 0.663, 0.152743
2023/06/14 11:03:26.236, True, 0.337, 0.152743
2023/06/14 11:03:26.739, True, 0.332, 0.155489
2023/06/14 11:03:27.244, True, 0.332, 0.151369
2023/06/14 11:03:27.748, True, 0.332, 0.153277
2023/06/14 11:03:28.244, True, 0.673, 0.155795
2023/06/14 11:03:28.748, True, 0.332, 0.151064
2023/06/14 11:03:29.252, True, 0.332, 0.151980
2023/06/14 11:03:29.748, True, 0.337, 0.153964
2023/06/14 11:03:30.252, True, 0.331, 0.153201
2023/06/14 11:03:30.756, True, 0.663, 0.151827
2023/06/14 11:03:31.251, True, 0.337, 0.152056
2023/06/14 11:03:31.756, True, 0.331, 0.154879
2023/06/14 11:03:32.260, True, 0.332, 0.153277
2023/06/14 11:03:32.756, True, 0.674, 0.152514
2023/06/14 11:03:33.260, True, 0.332, 0.152819
2023/06/14 11:03:33.756, True, 0.337, 0.150683
2023/06/14 11:03:34.260, True, 0.332, 0.150530
2023/06/14 11:03:34.764, True, 0.332, 0.154650
2023/06/14 11:03:35.260, True, 0.337, 0.153811
2023/06/14 11:03:35.764, True, 0.663, 0.153887
2023/06/14 11:03:36.268, True, 0.332, 0.153048
2023/06/14 11:03:36.772, True, 0.331, 0.152667
2023/06/14 11:03:37.268, True, 0.337, 0.153811
2023/06/14 11:03:37.772, True, 0.663, 0.153429
2023/06/14 11:03:38.268, True, 0.338, 0.152514
2023/06/14 11:03:38.772, True, 0.331, 0.153048
2023/06/14 11:03:39.276, True, 0.332, 0.154345
2023/06/14 11:03:39.780, True, 0.332, 0.153429
2023/06/14 11:03:40.276, True, 0.674, 0.153353
2023/06/14 11:03:40.780, True, 0.332, 0.153811
2023/06/14 11:03:41.284, True, 0.332, 0.153582
2023/06/14 11:03:41.788, True, 0.331, 0.154116
2023/06/14 11:03:42.284, True, 0.337, 0.156252
2023/06/14 11:03:42.788, True, 0.332, 0.154574
2023/06/14 11:03:43.284, True, 0.337, 0.152667
2023/06/14 11:03:43.788, True, 0.663, 0.153353
2023/06/14 11:03:44.292, True, 0.332, 0.153353
2023/06/14 11:03:44.796, True, 0.332, 0.152590
2023/06/14 11:03:45.292, True, 0.337, 0.151522
2023/06/14 11:03:45.796, True, 0.332, 0.152361
2023/06/14 11:03:46.300, True, 0.332, 0.153277
2023/06/14 11:03:46.796, True, 0.675, 0.152895
2023/06/14 11:03:47.300, True, 0.331, 0.150988
2023/06/14 11:03:47.795, True, 0.337, 0.151904
2023/06/14 11:03:48.300, True, 0.331, 0.153735
2023/06/14 11:03:48.803, True, 0.332, 0.152819
2023/06/14 11:03:49.308, True, 0.332, 0.155184
2023/06/14 11:03:49.804, True, 0.673, 0.152667
2023/06/14 11:03:50.308, True, 0.332, 0.153658
2023/06/14 11:03:50.804, True, 0.337, 0.150912
2023/06/14 11:03:51.308, True, 0.332, 0.151904
2023/06/14 11:03:51.812, True, 0.664, 0.154421
2023/06/14 11:03:52.308, True, 0.337, 0.153735
2023/06/14 11:03:52.812, True, 0.332, 0.152819
2023/06/14 11:03:53.316, True, 0.332, 0.152361
2023/06/14 11:03:53.812, True, 0.337, 0.152895
2023/06/14 11:03:54.316, True, 0.663, 0.151598
2023/06/14 11:03:54.820, True, 0.332, 0.152056
2023/06/14 11:03:55.324, True, 0.332, 0.153124
2023/06/14 11:03:55.820, True, 0.337, 0.153353
2023/06/14 11:03:56.324, True, 0.332, 0.151293
2023/06/14 11:03:56.820, True, 0.337, 0.152667
2023/06/14 11:03:57.324, True, 0.331, 0.153887
2023/06/14 11:03:57.828, True, 0.663, 0.152209
2023/06/14 11:03:58.324, True, 0.337, 0.153811
2023/06/14 11:03:58.828, True, 0.331, 0.152209
2023/06/14 11:03:59.332, True, 0.332, 0.151369
2023/06/14 11:03:59.828, True, 0.337, 0.153658
2023/06/14 11:04:00.332, True, 0.332, 0.154955
2023/06/14 11:04:00.836, True, 0.664, 0.153277
2023/06/14 11:04:01.340, True, 0.331, 0.153658
2023/06/14 11:04:01.836, True, 0.337, 0.153658
2023/06/14 11:04:02.340, True, 0.332, 0.153124
2023/06/14 11:04:02.836, True, 0.674, 0.153811
2023/06/14 11:04:03.340, True, 0.331, 0.151522
2023/06/14 11:04:03.844, True, 0.332, 0.152209
2023/06/14 11:04:04.340, True, 0.337, 0.153353
2023/06/14 11:04:04.844, True, 0.663, 0.154955
2023/06/14 11:04:05.348, True, 0.332, 0.151141
2023/06/14 11:04:05.844, True, 0.337, 0.153048
2023/06/14 11:04:06.348, True, 0.332, 0.153277
2023/06/14 11:04:06.852, True, 0.332, 0.153811
2023/06/14 11:04:07.347, True, 0.337, 0.150912
2023/06/14 11:04:07.851, True, 0.663, 0.152667
2023/06/14 11:04:08.356, True, 0.332, 0.152056
2023/06/14 11:04:08.860, True, 0.331, 0.153353
2023/06/14 11:04:09.356, True, 0.337, 0.152361
2023/06/14 11:04:09.860, True, 0.332, 0.152361
2023/06/14 11:04:10.356, True, 0.337, 0.150301
2023/06/14 11:04:10.860, True, 0.663, 0.150454
2023/06/14 11:04:11.364, True, 0.332, 0.154040
2023/06/14 11:04:11.860, True, 0.337, 0.154498
2023/06/14 11:04:12.363, True, 0.331, 0.153506